Time,TemperatureF,DewpointF,PressureIn,WindDirection,WindDirectionDegrees,WindSpeedMPH,WindSpeedGustMPH,Humidity,HourlyPrecipIn,Conditions,Clouds,dailyrainin,SoftwareType,DateUTC
2013-02-01 00:00:00,23.7,9.5,29.61,North,356,7.0,13.0,54,0.00,OVC,OVC,0.59,WeatherDisplay:10.34,2013-02-01 05:00:00,
2013-02-01 00:02:00,23.5,9.3,29.61,NW,315,7.0,9.0,54,0.00,BKN,BKN,0.00,WeatherDisplay:10.34,2013-02-01 05:02:00,
2013-02-01 00:03:00,23.5,9.3,29.61,SW,233,6.0,12.0,54,0.00,BKN,BKN,0.00,WeatherDisplay:10.34,2013-02-01 05:03:00,
2013-02-01 00:08:00,23.5,9.7,29.61,WSW,254,5.0,9.0,55,0.00,BKN,BKN,0.00,WeatherDisplay:10.34,2013-02-01 05:08:00,
2013-02-01 00:13:00,23.4,9.6,29.61,WSW,239,8.0,12.0,55,0.00,BKN,BKN,0.00,WeatherDisplay:10.34,2013-02-01 05:13:00,
2013-02-01 00:17:00,23.2,9.4,29.61,West,271,6.0,12.0,55,0.00,BKN,BKN,0.00,WeatherDisplay:10.34,2013-02-01 05:17:00,
2013-02-01 00:22:00,23.2,9.0,29.61,WSW,247,7.0,12.0,54,0.00,BKN,BKN,0.00,WeatherDisplay:10.34,2013-02-01 05:22:00,
2013-02-01 00:27:00,23.0,8.8,29.61,NNW,347,5.0,14.0,54,0.00,BKN,BKN,0.00,WeatherDisplay:10.34,2013-02-01 05:27:00,
2013-02-01 00:32:00,23.0,8.8,29.61,WNW,290,6.0,10.0,54,0.00,BKN,BKN,0.00,WeatherDisplay:10.34,2013-02-01 05:32:00,
2013-02-01 00:37:00,23.0,8.8,29.61,West,271,5.0,8.0,54,0.00,BKN,BKN,0.00,WeatherDisplay:10.34,2013-02-01 05:37:00,
2013-02-01 00:42:00,23.0,8.0,29.61,West,261,6.0,12.0,52,0.00,BKN,BKN,0.00,WeatherDisplay:10.34,2013-02-01 05:42:00,
2013-02-01 00:47:00,23.0,6.7,29.61,West,280,7.0,12.0,49,0.00,BKN,BKN,0.00,WeatherDisplay:10.34,2013-02-01 05:47:00,
2013-02-01 00:52:00,23.0,6.2,29.61,WSW,237,6.0,13.0,48,0.00,BKN,BKN,0.00,WeatherDisplay:10.34,2013-02-01 05:52:00,
2013-02-01 00:57:00,23.0,5.7,29.61,WNW,289,4.0,9.0,47,0.00,BKN,BKN,0.00,WeatherDisplay:10.34,2013-02-01 05:57:00,
2013-02-01 01:02:00,23.0,5.7,29.61,SW,223,5.0,8.0,47,0.00,CLR,CLR,0.00,WeatherDisplay:10.34,2013-02-01 06:02:00,
2013-02-01 01:07:00,23.0,5.3,29.61,South,186,4.0,7.0,46,0.00,CLR,CLR,0.00,WeatherDisplay:10.34,2013-02-01 06:07:00,
2013-02-01 01:12:00,23.0,5.3,29.65,WNW,301,6.0,12.0,46,0.00,CLR,CLR,0.00,WeatherDisplay:10.34,2013-02-01 06:12:00,
2013-02-01 01:17:00,22.8,5.1,29.65,ENE,74,3.0,12.0,46,0.00,CLR,CLR,0.00,WeatherDisplay:10.34,2013-02-01 06:17:00,
2013-02-01 01:22:00,22.8,5.1,29.65,West,264,7.0,10.0,46,0.00,CLR,CLR,0.00,WeatherDisplay:10.34,2013-02-01 06:22:00,
2013-02-01 01:27:00,22.6,4.9,29.65,West,278,7.0,10.0,46,0.00,CLR,CLR,0.00,WeatherDisplay:10.34,2013-02-01 06:27:00,
2013-02-01 01:32:00,22.6,4.9,29.65,WSW,258,6.0,12.0,46,0.00,CLR,CLR,0.00,WeatherDisplay:10.34,2013-02-01 06:32:00,
2013-02-01 01:37:00,22.6,4.9,29.65,NNW,331,5.0,9.0,46,0.00,CLR,CLR,0.00,WeatherDisplay:10.34,2013-02-01 06:37:00,
2013-02-01 01:42:00,22.5,4.8,29.65,ENE,75,4.0,8.0,46,0.00,CLR,CLR,0.00,WeatherDisplay:10.34,2013-02-01 06:42:00,
2013-02-01 01:47:00,22.5,4.8,29.65,North,7,6.0,9.0,46,0.00,CLR,CLR,0.00,WeatherDisplay:10.34,2013-02-01 06:47:00,
2013-02-01 01:52:00,22.3,4.6,29.65,West,265,5.0,10.0,46,0.00,CLR,CLR,0.00,WeatherDisplay:10.34,2013-02-01 06:52:00,
2013-02-01 01:57:00,22.3,4.1,29.65,SW,227,5.0,12.0,45,0.00,CLR,CLR,0.00,WeatherDisplay:10.34,2013-02-01 06:57:00,
2013-02-01 02:02:00,22.1,4.0,29.65,SSW,196,6.0,12.0,45,0.00,SCT,SCT,0.00,WeatherDisplay:10.34,2013-02-01 07:02:00,
2013-02-01 02:07:00,22.1,4.0,29.65,WSW,245,8.0,18.0,45,0.00,SCT,SCT,0.00,WeatherDisplay:10.34,2013-02-01 07:07:00,
2013-02-01 02:12:00,22.1,4.0,29.65,West,262,6.0,12.0,45,0.00,SCT,SCT,0.00,WeatherDisplay:10.34,2013-02-01 07:12:00,
2013-02-01 02:17:00,22.1,3.5,29.65,South,177,4.0,8.0,44,0.00,SCT,SCT,0.00,WeatherDisplay:10.34,2013-02-01 07:17:00,
2013-02-01 02:22:00,22.1,4.0,29.65,WSW,253,7.0,12.0,45,0.00,SCT,SCT,0.00,WeatherDisplay:10.34,2013-02-01 07:22:00,
2013-02-01 02:27:00,22.1,3.5,29.65,SSW,213,6.0,13.0,44,0.00,SCT,SCT,0.00,WeatherDisplay:10.34,2013-02-01 07:27:00,
2013-02-01 02:32:00,22.1,3.5,29.65,NW,309,3.0,7.0,44,0.00,SCT,SCT,0.00,WeatherDisplay:10.34,2013-02-01 07:32:00,
2013-02-01 02:37:00,21.9,2.8,29.65,NW,319,7.0,9.0,43,0.00,SCT,SCT,0.00,WeatherDisplay:10.34,2013-02-01 07:37:00,
2013-02-01 02:42:00,22.1,3.0,29.68,NW,314,5.0,12.0,43,0.00,SCT,SCT,0.00,WeatherDisplay:10.34,2013-02-01 07:42:00,
2013-02-01 02:47:00,21.9,2.8,29.68,NNW,346,6.0,13.0,43,0.00,SCT,SCT,0.00,WeatherDisplay:10.34,2013-02-01 07:47:00,
2013-02-01 02:52:00,21.9,2.8,29.68,WNW,299,6.0,16.0,43,0.00,SCT,SCT,0.00,WeatherDisplay:10.34,2013-02-01 07:52:00,
2013-02-01 02:57:00,21.7,2.6,29.68,SW,231,4.0,10.0,43,0.00,SCT,SCT,0.00,WeatherDisplay:10.34,2013-02-01 07:57:00,
2013-02-01 03:02:00,21.7,2.6,29.68,WSW,241,3.0,15.0,43,0.00,CLR,CLR,0.00,WeatherDisplay:10.34,2013-02-01 08:02:00,
2013-02-01 03:07:00,21.7,2.6,29.69,North,0,4.0,8.0,43,0.00,CLR,CLR,0.00,WeatherDisplay:10.34,2013-02-01 08:07:00,
2013-02-01 03:12:00,21.7,2.1,29.69,NNE,18,7.0,9.0,42,0.00,CLR,CLR,0.00,WeatherDisplay:10.34,2013-02-01 08:12:00,
2013-02-01 03:17:00,21.7,2.1,29.69,West,276,7.0,12.0,42,0.00,CLR,CLR,0.00,WeatherDisplay:10.34,2013-02-01 08:17:00,
2013-02-01 03:22:00,21.6,2.0,29.69,NNW,338,5.0,12.0,42,0.00,CLR,CLR,0.00,WeatherDisplay:10.34,2013-02-01 08:22:00,
2013-02-01 03:27:00,21.6,2.0,29.69,ENE,57,4.0,9.0,42,0.00,CLR,CLR,0.00,WeatherDisplay:10.34,2013-02-01 08:27:00,
2013-02-01 03:32:00,21.4,1.8,29.69,WSW,251,6.0,12.0,42,0.00,CLR,CLR,0.00,WeatherDisplay:10.34,2013-02-01 08:32:00,
2013-02-01 03:37:00,21.4,1.8,29.69,West,268,8.0,20.0,42,0.00,CLR,CLR,0.00,WeatherDisplay:10.34,2013-02-01 08:37:00,
2013-02-01 03:42:00,21.4,1.8,29.69,North,356,4.0,13.0,42,0.00,CLR,CLR,0.00,WeatherDisplay:10.34,2013-02-01 08:42:00,
2013-02-01 03:47:00,21.4,1.8,29.69,WNW,286,5.0,12.0,42,0.00,CLR,CLR,0.00,WeatherDisplay:10.34,2013-02-01 08:47:00,
2013-02-01 03:52:00,21.4,1.8,29.69,SE,146,6.0,12.0,42,0.00,CLR,CLR,0.00,WeatherDisplay:10.34,2013-02-01 08:52:00,
2013-02-01 03:57:00,21.4,1.8,29.69,NW,313,4.0,9.0,42,0.00,CLR,CLR,0.00,WeatherDisplay:10.34,2013-02-01 08:57:00,
2013-02-01 04:02:00,21.4,1.8,29.69,NNW,340,5.0,12.0,42,0.00,CLR,CLR,0.00,WeatherDisplay:10.34,2013-02-01 09:02:00,
2013-02-01 04:07:00,21.4,1.8,29.69,North,356,6.0,10.0,42,0.00,CLR,CLR,0.00,WeatherDisplay:10.34,2013-02-01 09:07:00,
2013-02-01 04:12:00,21.2,1.6,29.69,WNW,297,5.0,7.0,42,0.00,CLR,CLR,0.00,WeatherDisplay:10.34,2013-02-01 09:12:00,
2013-02-01 04:17:00,21.2,1.6,29.69,SE,139,5.0,9.0,42,0.00,CLR,CLR,0.00,WeatherDisplay:10.34,2013-02-01 09:17:00,
2013-02-01 04:22:00,21.2,1.6,29.69,West,263,9.0,15.0,42,0.00,CLR,CLR,0.00,WeatherDisplay:10.34,2013-02-01 09:22:00,
2013-02-01 04:27:00,21.0,1.5,29.69,North,3,5.0,9.0,42,0.00,CLR,CLR,0.00,WeatherDisplay:10.34,2013-02-01 09:27:00,
2013-02-01 04:32:00,21.0,1.5,29.69,NNE,14,5.0,10.0,42,0.00,CLR,CLR,0.00,WeatherDisplay:10.34,2013-02-01 09:32:00,
2013-02-01 04:37:00,21.0,1.5,29.69,WNW,299,5.0,9.0,42,0.00,CLR,CLR,0.00,WeatherDisplay:10.34,2013-02-01 09:37:00,
2013-02-01 04:42:00,21.0,1.0,29.69,NW,310,8.0,20.0,41,0.00,CLR,CLR,0.00,WeatherDisplay:10.34,2013-02-01 09:42:00,
2013-02-01 04:47:00,21.0,1.0,29.69,NNE,19,7.0,13.0,41,0.00,CLR,CLR,0.00,WeatherDisplay:10.34,2013-02-01 09:47:00,
2013-02-01 04:52:00,21.0,1.0,29.69,NW,308,4.0,17.0,41,0.00,CLR,CLR,0.00,WeatherDisplay:10.34,2013-02-01 09:52:00,
2013-02-01 04:57:00,20.8,0.8,29.69,WNW,297,8.0,14.0,41,0.00,CLR,CLR,0.00,WeatherDisplay:10.34,2013-02-01 09:57:00,
2013-02-01 05:02:00,20.8,0.8,29.69,WNW,299,5.0,15.0,41,0.00,FEW,FEW,0.00,WeatherDisplay:10.34,2013-02-01 10:02:00,
2013-02-01 05:07:00,20.8,0.8,29.69,North,356,5.0,10.0,41,0.00,FEW,FEW,0.00,WeatherDisplay:10.34,2013-02-01 10:07:00,
2013-02-01 05:12:00,20.8,1.3,29.69,WSW,255,6.0,9.0,42,0.00,FEW,FEW,0.00,WeatherDisplay:10.34,2013-02-01 10:12:00,
2013-02-01 05:17:00,20.7,1.2,29.69,NW,321,5.0,12.0,42,0.00,FEW,FEW,0.00,WeatherDisplay:10.34,2013-02-01 10:17:00,
2013-02-01 05:22:00,20.7,1.7,29.69,North,11,4.0,8.0,43,0.00,FEW,FEW,0.00,WeatherDisplay:10.34,2013-02-01 10:22:00,
2013-02-01 05:27:00,20.7,1.7,29.73,SSW,207,7.0,13.0,43,0.00,FEW,FEW,0.00,WeatherDisplay:10.34,2013-02-01 10:27:00,
2013-02-01 05:32:00,20.5,1.5,29.73,WSW,247,7.0,12.0,43,0.00,FEW,FEW,0.00,WeatherDisplay:10.34,2013-02-01 10:32:00,
2013-02-01 05:37:00,20.5,1.5,29.73,SSE,149,3.0,7.0,43,0.00,FEW,FEW,0.00,WeatherDisplay:10.34,2013-02-01 10:37:00,
2013-02-01 05:42:00,20.5,1.5,29.73,WNW,291,3.0,5.0,43,0.00,FEW,FEW,0.00,WeatherDisplay:10.34,2013-02-01 10:42:00,
2013-02-01 05:47:00,20.5,1.5,29.73,SSW,207,7.0,13.0,43,0.00,FEW,FEW,0.00,WeatherDisplay:10.34,2013-02-01 10:47:00,
2013-02-01 05:52:00,20.5,1.5,29.73,WNW,293,4.0,9.0,43,0.00,FEW,FEW,0.00,WeatherDisplay:10.34,2013-02-01 10:52:00,
2013-02-01 05:57:00,20.5,1.5,29.73,SSE,149,6.0,12.0,43,0.00,FEW,FEW,0.00,WeatherDisplay:10.34,2013-02-01 10:57:00,
2013-02-01 06:02:00,20.5,1.5,29.73,NE,46,4.0,9.0,43,0.00,CLR,CLR,0.00,WeatherDisplay:10.34,2013-02-01 11:02:00,
2013-02-01 06:07:00,20.5,1.5,29.73,WNW,282,6.0,8.0,43,0.00,CLR,CLR,0.00,WeatherDisplay:10.34,2013-02-01 11:07:00,
2013-02-01 06:12:00,20.3,1.3,29.73,NNW,346,5.0,8.0,43,0.00,CLR,CLR,0.00,WeatherDisplay:10.34,2013-02-01 11:12:00,
2013-02-01 06:17:00,20.3,1.3,29.73,SW,235,3.0,7.0,43,0.00,CLR,CLR,0.00,WeatherDisplay:10.34,2013-02-01 11:17:00,
2013-02-01 06:22:00,20.3,1.3,29.73,NNW,329,5.0,5.0,43,0.00,CLR,CLR,0.00,WeatherDisplay:10.34,2013-02-01 11:22:00,
2013-02-01 06:27:00,20.3,1.3,29.76,WSW,257,8.0,9.0,43,0.00,CLR,CLR,0.00,WeatherDisplay:10.34,2013-02-01 11:27:00,
2013-02-01 06:32:00,20.3,1.3,29.76,West,260,3.0,7.0,43,0.00,CLR,CLR,0.00,WeatherDisplay:10.34,2013-02-01 11:32:00,
2013-02-01 06:37:00,20.1,1.2,29.76,NNE,26,3.0,7.0,43,0.00,CLR,CLR,0.00,WeatherDisplay:10.34,2013-02-01 11:37:00,
2013-02-01 06:42:00,20.1,1.2,29.76,NNW,328,4.0,9.0,43,0.00,CLR,CLR,0.00,WeatherDisplay:10.34,2013-02-01 11:42:00,
2013-02-01 06:47:00,20.3,1.3,29.76,West,264,3.0,12.0,43,0.00,CLR,CLR,0.00,WeatherDisplay:10.34,2013-02-01 11:47:00,
2013-02-01 06:52:00,20.1,1.2,29.76,West,277,4.0,10.0,43,0.00,CLR,CLR,0.00,WeatherDisplay:10.34,2013-02-01 11:52:00,
2013-02-01 06:57:00,20.1,1.2,29.76,SSE,159,3.0,5.0,43,0.00,CLR,CLR,0.00,WeatherDisplay:10.34,2013-02-01 11:57:00,
2013-02-01 07:02:00,20.1,1.2,29.76,WSW,247,4.0,12.0,43,0.00,CLR,CLR,0.00,WeatherDisplay:10.34,2013-02-01 12:02:00,
2013-02-01 07:07:00,19.9,1.0,29.76,WNW,303,5.0,9.0,43,0.00,CLR,CLR,0.00,WeatherDisplay:10.34,2013-02-01 12:07:00,
2013-02-01 07:13:00,19.9,1.0,29.76,SW,231,3.0,6.0,43,0.00,CLR,CLR,0.00,WeatherDisplay:10.34,2013-02-01 12:13:00,
2013-02-01 07:18:00,19.9,1.0,29.76,NNW,347,7.0,9.0,43,0.00,CLR,CLR,0.00,WeatherDisplay:10.34,2013-02-01 12:18:00,
2013-02-01 07:24:00,19.9,1.0,29.77,North,1,0.0,5.0,43,0.00,CLR,CLR,0.00,WeatherDisplay:10.34,2013-02-01 12:24:00,
2013-02-01 07:29:00,20.1,1.2,29.80,SW,227,3.0,6.0,43,0.00,CLR,CLR,0.00,WeatherDisplay:10.34,2013-02-01 12:29:00,
2013-02-01 07:34:00,20.1,0.7,29.80,North,356,4.0,7.0,42,0.00,CLR,CLR,0.00,WeatherDisplay:10.34,2013-02-01 12:34:00,
2013-02-01 07:39:00,20.1,0.7,29.80,WSW,245,7.0,15.0,42,0.00,CLR,CLR,0.00,WeatherDisplay:10.34,2013-02-01 12:39:00,
2013-02-01 07:44:00,20.1,0.1,29.80,SW,236,4.0,12.0,41,0.00,CLR,CLR,0.00,WeatherDisplay:10.34,2013-02-01 12:44:00,
2013-02-01 07:49:00,20.1,-0.4,29.80,WSW,239,5.0,8.0,40,0.00,CLR,CLR,0.00,WeatherDisplay:10.34,2013-02-01 12:49:00,
2013-02-01 07:54:00,20.1,-0.4,29.80,WSW,254,7.0,10.0,40,0.00,CLR,CLR,0.00,WeatherDisplay:10.34,2013-02-01 12:54:00,
2013-02-01 07:59:00,20.1,-0.4,29.83,North,356,5.0,9.0,40,0.00,CLR,CLR,0.00,WeatherDisplay:10.34,2013-02-01 12:59:00,
2013-02-01 08:04:00,20.3,-0.2,29.83,WSW,247,5.0,12.0,40,0.00,CLR,CLR,0.00,WeatherDisplay:10.34,2013-02-01 13:04:00,
2013-02-01 08:09:00,20.5,-0.1,29.83,NNW,327,3.0,7.0,40,0.00,CLR,CLR,0.00,WeatherDisplay:10.34,2013-02-01 13:09:00,
2013-02-01 08:14:00,20.5,-0.6,29.83,West,268,4.0,8.0,39,0.00,CLR,CLR,0.00,WeatherDisplay:10.34,2013-02-01 13:14:00,
2013-02-01 08:19:00,20.5,-0.6,29.83,WNW,301,9.0,17.0,39,0.00,CLR,CLR,0.00,WeatherDisplay:10.34,2013-02-01 13:19:00,
2013-02-01 08:24:00,20.5,-0.6,29.83,NE,53,7.0,12.0,39,0.00,CLR,CLR,0.00,WeatherDisplay:10.34,2013-02-01 13:24:00,
2013-02-01 08:29:00,20.7,-0.4,29.83,NNW,337,6.0,9.0,39,0.00,CLR,CLR,0.00,WeatherDisplay:10.34,2013-02-01 13:29:00,
2013-02-01 08:34:00,20.8,-0.3,29.83,WNW,285,4.0,12.0,39,0.00,CLR,CLR,0.00,WeatherDisplay:10.34,2013-02-01 13:34:00,
2013-02-01 08:39:00,21.0,-0.1,29.83,NNE,12,3.0,7.0,39,0.00,CLR,CLR,0.00,WeatherDisplay:10.34,2013-02-01 13:39:00,
2013-02-01 08:44:00,21.0,-0.1,29.86,NNW,340,4.0,6.0,39,0.00,CLR,CLR,0.00,WeatherDisplay:10.34,2013-02-01 13:44:00,
2013-02-01 08:49:00,21.4,0.2,29.86,NE,37,8.0,12.0,39,0.00,CLR,CLR,0.00,WeatherDisplay:10.34,2013-02-01 13:49:00,
2013-02-01 08:54:00,21.4,0.2,29.86,NNE,28,6.0,12.0,39,0.00,CLR,CLR,0.00,WeatherDisplay:10.34,2013-02-01 13:54:00,
2013-02-01 08:59:00,21.6,-0.2,29.86,SW,224,5.0,8.0,38,0.00,CLR,CLR,0.00,WeatherDisplay:10.34,2013-02-01 13:59:00,
2013-02-01 09:04:00,21.6,0.4,29.86,West,269,7.0,12.0,39,0.00,BKN,BKN,0.00,WeatherDisplay:10.34,2013-02-01 14:04:00,
2013-02-01 09:09:00,21.7,0.5,29.86,West,262,6.0,14.0,39,0.00,BKN,BKN,0.00,WeatherDisplay:10.34,2013-02-01 14:09:00,
2013-02-01 09:14:00,21.7,0.5,29.86,North,351,4.0,9.0,39,0.00,BKN,BKN,0.00,WeatherDisplay:10.34,2013-02-01 14:14:00,
2013-02-01 09:19:00,21.9,0.7,29.86,NNW,342,6.0,8.0,39,0.00,BKN,BKN,0.00,WeatherDisplay:10.34,2013-02-01 14:19:00,
2013-02-01 09:24:00,21.9,0.7,29.86,West,263,4.0,7.0,39,0.00,BKN,BKN,0.00,WeatherDisplay:10.34,2013-02-01 14:24:00,
2013-02-01 09:29:00,21.7,0.5,29.86,NNE,17,5.0,9.0,39,0.00,BKN,BKN,0.00,WeatherDisplay:10.34,2013-02-01 14:29:00,
2013-02-01 09:34:00,21.7,1.1,29.86,North,4,7.0,10.0,40,0.00,BKN,BKN,0.00,WeatherDisplay:10.34,2013-02-01 14:34:00,
2013-02-01 09:39:00,21.9,1.8,29.86,NNW,329,4.0,7.0,41,0.00,BKN,BKN,0.00,WeatherDisplay:10.34,2013-02-01 14:39:00,
2013-02-01 09:44:00,21.9,1.8,29.90,NNW,338,6.0,9.0,41,0.00,BKN,BKN,0.00,WeatherDisplay:10.34,2013-02-01 14:44:00,
2013-02-01 09:49:00,21.7,2.1,29.90,NNW,340,3.0,10.0,42,0.00,BKN,BKN,0.00,WeatherDisplay:10.34,2013-02-01 14:49:00,
2013-02-01 09:54:00,21.6,2.5,29.90,NNW,336,5.0,8.0,43,0.00,BKN,BKN,0.00,WeatherDisplay:10.34,2013-02-01 14:54:00,
2013-02-01 09:59:00,21.6,2.5,29.90,NNW,344,5.0,9.0,43,0.00,BKN,BKN,0.00,WeatherDisplay:10.34,2013-02-01 14:59:00,
2013-02-01 10:04:00,21.4,2.3,29.90,West,274,5.0,10.0,43,0.00,OVC,OVC,0.00,WeatherDisplay:10.34,2013-02-01 15:04:00,
2013-02-01 10:09:00,21.6,2.5,29.90,North,1,4.0,13.0,43,0.00,OVC,OVC,0.00,WeatherDisplay:10.34,2013-02-01 15:09:00,
2013-02-01 10:14:00,21.7,2.6,29.93,NNE,30,4.0,6.0,43,0.00,OVC,OVC,0.00,WeatherDisplay:10.34,2013-02-01 15:14:00,
2013-02-01 10:19:00,21.7,2.6,29.93,WSW,242,3.0,6.0,43,0.00,OVC,OVC,0.00,WeatherDisplay:10.34,2013-02-01 15:19:00,
2013-02-01 10:24:00,21.9,2.8,29.93,West,277,4.0,6.0,43,0.00,OVC,OVC,0.00,WeatherDisplay:10.34,2013-02-01 15:24:00,
2013-02-01 10:29:00,21.9,2.8,29.93,NNE,17,4.0,7.0,43,0.00,OVC,OVC,0.00,WeatherDisplay:10.34,2013-02-01 15:29:00,
2013-02-01 10:34:00,22.1,2.5,29.93,West,261,5.0,9.0,42,0.00,OVC,OVC,0.00,WeatherDisplay:10.34,2013-02-01 15:34:00,
2013-02-01 10:39:00,22.1,2.5,29.93,WSW,251,4.0,12.0,42,0.00,OVC,OVC,0.00,WeatherDisplay:10.34,2013-02-01 15:39:00,
2013-02-01 10:44:00,22.1,1.9,29.93,NNE,15,4.0,12.0,41,0.00,OVC,OVC,0.00,WeatherDisplay:10.34,2013-02-01 15:44:00,
2013-02-01 10:49:00,22.1,2.5,29.93,NNW,342,3.0,7.0,42,0.00,OVC,OVC,0.00,WeatherDisplay:10.34,2013-02-01 15:49:00,
2013-02-01 10:54:00,22.1,2.5,29.93,North,3,4.0,7.0,42,0.00,OVC,OVC,0.00,WeatherDisplay:10.34,2013-02-01 15:54:00,
2013-02-01 10:59:00,22.3,2.1,29.93,NNW,341,8.0,9.0,41,0.00,OVC,OVC,0.00,WeatherDisplay:10.34,2013-02-01 15:59:00,
2013-02-01 11:04:00,22.3,2.1,29.93,West,263,10.0,15.0,41,0.00,OVC,OVC,0.00,WeatherDisplay:10.34,2013-02-01 16:04:00,
2013-02-01 11:09:00,22.3,2.1,29.93,WSW,257,5.0,8.0,41,0.00,OVC,OVC,0.00,WeatherDisplay:10.34,2013-02-01 16:09:00,
2013-02-01 11:14:00,22.3,1.6,29.93,SW,221,7.0,12.0,40,0.00,OVC,OVC,0.00,WeatherDisplay:10.34,2013-02-01 16:14:00,
2013-02-01 11:19:00,22.3,1.6,29.93,North,8,4.0,9.0,40,0.04,RA,RA,0.04,WeatherDisplay:10.34,2013-02-01 16:19:00,
2013-02-01 11:24:00,22.5,1.8,29.93,North,4,7.0,12.0,40,0.08,RA,RA,0.08,WeatherDisplay:10.34,2013-02-01 16:24:00,
2013-02-01 11:29:00,23.2,2.9,29.93,WNW,294,6.0,12.0,41,0.08,RA,RA,0.08,WeatherDisplay:10.34,2013-02-01 16:29:00,
2013-02-01 11:34:00,23.5,2.2,29.93,West,268,4.0,10.0,39,0.08,OVC,OVC,0.08,WeatherDisplay:10.34,2013-02-01 16:34:00,
2013-02-01 11:39:00,23.6,1.6,29.93,NNW,341,7.0,14.0,38,0.08,OVC,OVC,0.08,WeatherDisplay:10.34,2013-02-01 16:39:00,
2013-02-01 11:44:00,23.9,1.9,29.93,NNW,344,6.0,12.0,38,0.08,OVC,OVC,0.08,WeatherDisplay:10.34,2013-02-01 16:44:00,
2013-02-01 11:49:00,24.3,1.7,29.93,NNW,344,8.0,16.0,37,0.08,OVC,OVC,0.08,WeatherDisplay:10.34,2013-02-01 16:49:00,
2013-02-01 11:54:00,24.1,2.1,29.93,SW,234,4.0,8.0,38,0.08,OVC,OVC,0.08,WeatherDisplay:10.34,2013-02-01 16:54:00,
2013-02-01 11:59:00,24.1,1.5,29.93,South,173,5.0,12.0,37,0.08,OVC,OVC,0.08,WeatherDisplay:10.34,2013-02-01 16:59:00,
2013-02-01 12:04:00,24.6,2.0,29.93,WSW,245,6.0,12.0,37,0.08,BKN,BKN,0.08,WeatherDisplay:10.34,2013-02-01 17:04:00,
2013-02-01 12:09:00,24.8,2.2,29.93,South,188,5.0,14.0,37,0.08,BKN,BKN,0.08,WeatherDisplay:10.34,2013-02-01 17:09:00,
2013-02-01 12:14:00,24.6,1.4,29.93,NNW,334,4.0,6.0,36,0.12,RA,RA,0.12,WeatherDisplay:10.34,2013-02-01 17:14:00,
2013-02-01 12:19:00,24.6,2.0,29.93,NW,317,6.0,9.0,37,0.12,RA,RA,0.16,WeatherDisplay:10.34,2013-02-01 17:19:00,
2013-02-01 12:24:00,24.8,2.2,29.93,NNW,337,4.0,6.0,37,0.08,RA,RA,0.16,WeatherDisplay:10.34,2013-02-01 17:24:00,
2013-02-01 12:29:00,25.0,2.3,29.93,West,263,6.0,9.0,37,0.08,BKN,BKN,0.16,WeatherDisplay:10.34,2013-02-01 17:29:00,
2013-02-01 12:34:00,24.8,1.6,29.93,NNW,339,4.0,8.0,36,0.08,BKN,BKN,0.16,WeatherDisplay:10.34,2013-02-01 17:34:00,
2013-02-01 12:39:00,24.4,1.3,29.93,NNW,336,4.0,6.0,36,0.08,BKN,BKN,0.16,WeatherDisplay:10.34,2013-02-01 17:39:00,
2013-02-01 12:44:00,23.9,0.8,29.93,NNE,13,5.0,7.0,36,0.08,BKN,BKN,0.16,WeatherDisplay:10.34,2013-02-01 17:44:00,
2013-02-01 12:49:00,23.9,0.8,29.93,SSW,210,7.0,12.0,36,0.08,BKN,BKN,0.16,WeatherDisplay:10.34,2013-02-01 17:49:00,
2013-02-01 12:54:00,23.9,0.8,29.93,WNW,300,4.0,6.0,36,0.08,BKN,BKN,0.16,WeatherDisplay:10.34,2013-02-01 17:54:00,
2013-02-01 12:59:00,24.3,1.2,29.93,NW,307,6.0,9.0,36,0.08,BKN,BKN,0.16,WeatherDisplay:10.34,2013-02-01 17:59:00,
2013-02-01 13:04:00,25.0,1.7,29.93,SW,216,5.0,8.0,36,0.08,,,0.16,WeatherDisplay:10.34,2013-02-01 18:04:00,
2013-02-01 13:09:00,25.2,1.9,29.93,North,7,8.0,10.0,36,0.08,,,0.16,WeatherDisplay:10.34,2013-02-01 18:09:00,
2013-02-01 13:14:00,25.2,1.3,29.93,NNW,347,6.0,9.0,35,0.04,,,0.16,WeatherDisplay:10.34,2013-02-01 18:14:00,
2013-02-01 13:19:00,25.5,1.6,29.93,NNW,347,7.0,7.0,35,0.00,,,0.16,WeatherDisplay:10.34,2013-02-01 18:19:00,
2013-02-01 13:24:00,25.5,2.2,29.93,NW,317,4.0,7.0,36,0.00,,,0.16,WeatherDisplay:10.34,2013-02-01 18:24:00,
2013-02-01 13:29:00,25.6,1.7,29.93,North,7,3.0,6.0,35,0.00,,,0.16,WeatherDisplay:10.34,2013-02-01 18:29:00,
2013-02-01 13:34:00,25.6,1.0,29.93,North,0,7.0,9.0,34,0.00,,,0.16,WeatherDisplay:10.34,2013-02-01 18:34:00,
2013-02-01 13:39:00,25.0,0.5,29.93,NE,36,7.0,10.0,34,0.00,,,0.16,WeatherDisplay:10.34,2013-02-01 18:39:00,
2013-02-01 13:44:00,24.6,0.2,29.93,North,9,5.0,8.0,34,0.00,,,0.16,WeatherDisplay:10.34,2013-02-01 18:44:00,
2013-02-01 13:50:00,23.9,-0.4,29.93,NNE,33,5.0,12.0,34,0.00,,,0.16,WeatherDisplay:10.34,2013-02-01 18:50:00,
2013-02-01 13:55:00,23.9,0.2,29.93,SSW,194,4.0,9.0,35,0.00,,,0.16,WeatherDisplay:10.34,2013-02-01 18:55:00,
2013-02-01 14:00:00,23.5,-0.2,29.93,West,259,4.0,7.0,35,0.00,,,0.16,WeatherDisplay:10.34,2013-02-01 19:00:00,
2013-02-01 14:05:00,23.2,-0.5,29.93,NNW,327,4.0,13.0,35,0.00,BKN,BKN,0.16,WeatherDisplay:10.34,2013-02-01 19:05:00,
2013-02-01 14:10:00,23.2,-0.5,29.93,North,351,6.0,10.0,35,0.00,BKN,BKN,0.16,WeatherDisplay:10.34,2013-02-01 19:10:00,
2013-02-01 14:15:00,23.2,-0.5,29.93,North,351,4.0,7.0,35,0.00,BKN,BKN,0.16,WeatherDisplay:10.34,2013-02-01 19:15:00,
2013-02-01 14:20:00,23.4,-0.3,29.93,NNE,26,8.0,12.0,35,0.00,BKN,BKN,0.16,WeatherDisplay:10.34,2013-02-01 19:20:00,
2013-02-01 14:25:00,23.4,-0.3,29.93,North,1,7.0,14.0,35,0.00,BKN,BKN,0.16,WeatherDisplay:10.34,2013-02-01 19:25:00,
2013-02-01 14:30:00,23.5,-0.2,29.93,West,276,5.0,7.0,35,0.00,BKN,BKN,0.16,WeatherDisplay:10.34,2013-02-01 19:30:00,
2013-02-01 14:35:00,23.7,0.0,29.93,North,351,4.0,7.0,35,0.00,BKN,BKN,0.16,WeatherDisplay:10.34,2013-02-01 19:35:00,
2013-02-01 14:40:00,23.9,0.2,29.93,WNW,296,6.0,12.0,35,0.00,BKN,BKN,0.16,WeatherDisplay:10.34,2013-02-01 19:40:00,
2013-02-01 14:45:00,24.1,-0.3,29.93,WSW,245,7.0,9.0,34,0.00,BKN,BKN,0.16,WeatherDisplay:10.34,2013-02-01 19:45:00,
2013-02-01 14:50:00,23.9,-0.4,29.93,SSE,168,8.0,9.0,34,0.00,BKN,BKN,0.16,WeatherDisplay:10.34,2013-02-01 19:50:00,
2013-02-01 14:55:00,23.9,-0.4,29.93,North,8,4.0,8.0,34,0.00,BKN,BKN,0.16,WeatherDisplay:10.34,2013-02-01 19:55:00,
2013-02-01 15:00:00,23.5,-0.8,29.93,North,351,8.0,13.0,34,0.00,BKN,BKN,0.16,WeatherDisplay:10.34,2013-02-01 20:00:00,
2013-02-01 15:05:00,23.5,-0.8,29.93,WSW,237,3.0,8.0,34,0.00,OVC,OVC,0.16,WeatherDisplay:10.34,2013-02-01 20:05:00,
2013-02-01 15:11:00,23.2,-1.1,29.93,ESE,113,8.0,13.0,34,0.00,OVC,OVC,0.16,WeatherDisplay:10.34,2013-02-01 20:11:00,
2013-02-01 15:16:00,23.0,-1.2,29.93,North,351,5.0,7.0,34,0.00,OVC,OVC,0.16,WeatherDisplay:10.34,2013-02-01 20:16:00,
2013-02-01 15:21:00,22.8,-1.4,29.93,WSW,258,6.0,9.0,34,0.00,OVC,OVC,0.16,WeatherDisplay:10.34,2013-02-01 20:21:00,
2013-02-01 15:26:00,22.6,-1.6,29.93,West,274,6.0,13.0,34,0.00,OVC,OVC,0.16,WeatherDisplay:10.34,2013-02-01 20:26:00,
2013-02-01 15:31:00,22.5,-1.7,29.93,NNE,21,0.0,3.0,34,0.00,OVC,OVC,0.16,WeatherDisplay:10.34,2013-02-01 20:31:00,
2013-02-01 15:36:00,22.3,-1.9,29.93,NW,318,3.0,8.0,34,0.00,OVC,OVC,0.16,WeatherDisplay:10.34,2013-02-01 20:36:00,
2013-02-01 15:41:00,22.3,-1.9,29.93,West,262,3.0,6.0,34,0.00,OVC,OVC,0.16,WeatherDisplay:10.34,2013-02-01 20:41:00,
2013-02-01 15:46:00,22.3,-1.9,29.97,WSW,258,4.0,13.0,34,0.00,OVC,OVC,0.16,WeatherDisplay:10.34,2013-02-01 20:46:00,
2013-02-01 15:51:00,22.1,-2.0,29.97,North,351,6.0,12.0,34,0.00,OVC,OVC,0.16,WeatherDisplay:10.34,2013-02-01 20:51:00,
2013-02-01 15:56:00,21.9,-2.2,29.97,North,2,7.0,12.0,34,0.00,OVC,OVC,0.16,WeatherDisplay:10.34,2013-02-01 20:56:00,
2013-02-01 16:01:00,21.6,-2.5,29.97,West,268,6.0,14.0,34,0.00,OVC,OVC,0.16,WeatherDisplay:10.34,2013-02-01 21:01:00,
2013-02-01 16:06:00,21.4,-2.7,29.97,North,356,3.0,12.0,34,0.00,CLR,CLR,0.16,WeatherDisplay:10.34,2013-02-01 21:06:00,
2013-02-01 16:11:00,21.2,-2.9,29.97,NW,309,4.0,8.0,34,0.00,CLR,CLR,0.16,WeatherDisplay:10.34,2013-02-01 21:11:00,
2013-02-01 16:16:00,20.8,-3.2,29.97,SSE,160,7.0,12.0,34,0.00,CLR,CLR,0.16,WeatherDisplay:10.34,2013-02-01 21:16:00,
2013-02-01 16:21:00,20.8,-3.2,29.97,West,280,4.0,7.0,34,0.00,CLR,CLR,0.16,WeatherDisplay:10.34,2013-02-01 21:21:00,
2013-02-01 16:26:00,20.8,-3.2,29.97,NNW,341,5.0,12.0,34,0.00,CLR,CLR,0.16,WeatherDisplay:10.34,2013-02-01 21:26:00,
2013-02-01 16:32:00,20.7,-3.3,30.00,WSW,240,5.0,8.0,34,0.00,CLR,CLR,0.16,WeatherDisplay:10.34,2013-02-01 21:32:00,
2013-02-01 16:37:00,20.5,-3.5,30.00,NW,305,3.0,5.0,34,0.00,CLR,CLR,0.16,WeatherDisplay:10.34,2013-02-01 21:37:00,
2013-02-01 16:42:00,20.3,-3.0,30.00,WSW,244,4.0,9.0,35,0.00,CLR,CLR,0.16,WeatherDisplay:10.34,2013-02-01 21:42:00,
2013-02-01 16:47:00,20.1,-3.2,30.00,WSW,253,3.0,5.0,35,0.00,CLR,CLR,0.16,WeatherDisplay:10.34,2013-02-01 21:47:00,
2013-02-01 16:52:00,19.9,-3.4,30.00,WSW,242,3.0,5.0,35,0.00,CLR,CLR,0.16,WeatherDisplay:10.34,2013-02-01 21:52:00,
2013-02-01 16:57:00,20.1,-3.2,30.00,North,356,4.0,4.0,35,0.00,CLR,CLR,0.16,WeatherDisplay:10.34,2013-02-01 21:57:00,
2013-02-01 17:02:00,20.1,-3.2,30.00,SW,227,6.0,10.0,35,0.00,FEW,FEW,0.16,WeatherDisplay:10.34,2013-02-01 22:02:00,
2013-02-01 17:07:00,19.8,-3.5,30.00,WNW,283,4.0,6.0,35,0.00,FEW,FEW,0.16,WeatherDisplay:10.34,2013-02-01 22:07:00,
2013-02-01 17:12:00,19.4,-3.8,30.03,North,3,3.0,6.0,35,0.00,FEW,FEW,0.16,WeatherDisplay:10.34,2013-02-01 22:12:00,
2013-02-01 17:17:00,19.2,-4.0,30.03,NW,319,5.0,12.0,35,0.00,FEW,FEW,0.16,WeatherDisplay:10.34,2013-02-01 22:17:00,
2013-02-01 17:22:00,18.9,-4.3,30.03,NNW,335,4.0,7.0,35,0.00,FEW,FEW,0.16,WeatherDisplay:10.34,2013-02-01 22:22:00,
2013-02-01 17:27:00,18.9,-4.3,30.03,NNW,339,0.0,7.0,35,0.00,FEW,FEW,0.16,WeatherDisplay:10.34,2013-02-01 22:27:00,
2013-02-01 17:32:00,18.5,-4.7,30.03,West,265,4.0,7.0,35,0.00,FEW,FEW,0.16,WeatherDisplay:10.34,2013-02-01 22:32:00,
2013-02-01 17:37:00,18.3,-4.2,30.03,NW,325,4.0,7.0,36,0.00,FEW,FEW,0.16,WeatherDisplay:10.34,2013-02-01 22:37:00,
2013-02-01 17:42:00,18.3,-4.2,30.06,WNW,289,4.0,8.0,36,0.00,FEW,FEW,0.16,WeatherDisplay:10.34,2013-02-01 22:42:00,
2013-02-01 17:47:00,18.3,-4.2,30.06,NNE,18,5.0,9.0,36,0.00,FEW,FEW,0.16,WeatherDisplay:10.34,2013-02-01 22:47:00,
2013-02-01 17:52:00,18.1,-4.4,30.07,NE,47,5.0,9.0,36,0.00,FEW,FEW,0.16,WeatherDisplay:10.34,2013-02-01 22:52:00,
2013-02-01 17:57:00,18.0,-4.5,30.07,NNW,344,5.0,9.0,36,0.00,FEW,FEW,0.16,WeatherDisplay:10.34,2013-02-01 22:57:00,
2013-02-01 18:02:00,17.8,-4.7,30.07,NE,41,3.0,8.0,36,0.00,SCT,SCT,0.16,WeatherDisplay:10.34,2013-02-01 23:02:00,
2013-02-01 18:07:00,17.6,-4.9,30.07,North,351,4.0,7.0,36,0.00,SCT,SCT,0.16,WeatherDisplay:10.34,2013-02-01 23:07:00,
2013-02-01 18:12:00,17.6,-4.9,30.10,SW,215,4.0,8.0,36,0.00,SCT,SCT,0.16,WeatherDisplay:10.34,2013-02-01 23:12:00,
2013-02-01 18:18:00,17.4,-5.0,30.10,NW,318,3.0,5.0,36,0.00,SCT,SCT,0.16,WeatherDisplay:10.34,2013-02-01 23:18:00,
2013-02-01 18:23:00,17.4,-5.0,30.10,NNW,339,4.0,5.0,36,0.00,SCT,SCT,0.16,WeatherDisplay:10.34,2013-02-01 23:23:00,
2013-02-01 18:28:00,17.4,-5.0,30.10,NNW,333,4.0,9.0,36,0.00,SCT,SCT,0.16,WeatherDisplay:10.34,2013-02-01 23:28:00,
2013-02-01 18:33:00,17.2,-5.2,30.10,NNW,342,4.0,7.0,36,0.00,SCT,SCT,0.16,WeatherDisplay:10.34,2013-02-01 23:33:00,
2013-02-01 18:38:00,17.1,-5.4,30.10,NNW,346,3.0,5.0,36,0.00,SCT,SCT,0.16,WeatherDisplay:10.34,2013-02-01 23:38:00,
2013-02-01 18:43:00,17.2,-5.2,30.10,North,351,4.0,9.0,36,0.00,SCT,SCT,0.16,WeatherDisplay:10.34,2013-02-01 23:43:00,
2013-02-01 18:48:00,17.2,-5.2,30.10,West,273,3.0,6.0,36,0.00,SCT,SCT,0.16,WeatherDisplay:10.34,2013-02-01 23:48:00,
2013-02-01 18:53:00,17.2,-5.2,30.10,NNE,30,4.0,7.0,36,0.00,SCT,SCT,0.16,WeatherDisplay:10.34,2013-02-01 23:53:00,
2013-02-01 18:58:00,17.2,-5.2,30.13,North,351,4.0,6.0,36,0.00,SCT,SCT,0.16,WeatherDisplay:10.34,2013-02-01 23:58:00,
2013-02-01 19:03:00,17.1,-5.4,30.13,North,10,4.0,5.0,36,0.00,CLR,CLR,0.16,WeatherDisplay:10.34,2013-02-02 00:03:00,
2013-02-01 19:08:00,16.9,-5.5,30.13,North,351,4.0,10.0,36,0.00,CLR,CLR,0.16,WeatherDisplay:10.34,2013-02-02 00:08:00,
2013-02-01 19:13:00,16.9,-5.5,30.13,North,11,4.0,6.0,36,0.00,CLR,CLR,0.16,WeatherDisplay:10.34,2013-02-02 00:13:00,
2013-02-01 19:18:00,16.7,-5.7,30.13,NNE,13,4.0,4.0,36,0.00,CLR,CLR,0.16,WeatherDisplay:10.34,2013-02-02 00:18:00,
2013-02-01 19:23:00,16.9,-5.5,30.13,NNE,15,3.0,6.0,36,0.00,CLR,CLR,0.16,WeatherDisplay:10.34,2013-02-02 00:23:00,
2013-02-01 19:28:00,17.1,-5.4,30.13,North,351,3.0,6.0,36,0.00,CLR,CLR,0.16,WeatherDisplay:10.34,2013-02-02 00:28:00,
2013-02-01 19:33:00,17.1,-5.4,30.13,NW,321,3.0,6.0,36,0.00,CLR,CLR,0.16,WeatherDisplay:10.34,2013-02-02 00:33:00,
2013-02-01 19:38:00,17.1,-5.4,30.13,North,351,4.0,6.0,36,0.00,CLR,CLR,0.16,WeatherDisplay:10.34,2013-02-02 00:38:00,
2013-02-01 19:43:00,16.9,-5.5,30.13,West,269,4.0,9.0,36,0.00,CLR,CLR,0.16,WeatherDisplay:10.34,2013-02-02 00:43:00,
2013-02-01 19:48:00,16.7,-5.7,30.13,North,11,4.0,6.0,36,0.00,CLR,CLR,0.16,WeatherDisplay:10.34,2013-02-02 00:48:00,
2013-02-01 19:53:00,16.9,-5.5,30.13,NW,305,3.0,3.0,36,0.00,CLR,CLR,0.16,WeatherDisplay:10.34,2013-02-02 00:53:00,
2013-02-01 19:58:00,16.5,-5.3,30.16,North,0,4.0,7.0,37,0.00,CLR,CLR,0.16,WeatherDisplay:10.34,2013-02-02 00:58:00,
2013-02-01 20:03:00,16.5,-5.3,30.16,North,351,4.0,5.0,37,0.00,CLR,CLR,0.16,WeatherDisplay:10.34,2013-02-02 01:03:00,
2013-02-01 20:08:00,16.3,-5.4,30.16,NNW,334,0.0,5.0,37,0.00,CLR,CLR,0.16,WeatherDisplay:10.34,2013-02-02 01:08:00,
2013-02-01 20:13:00,16.5,-5.3,30.13,NW,312,5.0,7.0,37,0.00,CLR,CLR,0.16,WeatherDisplay:10.34,2013-02-02 01:13:00,
2013-02-01 20:18:00,16.5,-5.3,30.13,WNW,302,3.0,8.0,37,0.00,CLR,CLR,0.16,WeatherDisplay:10.34,2013-02-02 01:18:00,
2013-02-01 20:23:00,16.7,-5.1,30.13,SSW,210,4.0,6.0,37,0.00,CLR,CLR,0.16,WeatherDisplay:10.34,2013-02-02 01:23:00,
2013-02-01 20:28:00,16.5,-5.3,30.16,West,265,6.0,9.0,37,0.00,CLR,CLR,0.16,WeatherDisplay:10.34,2013-02-02 01:28:00,
2013-02-01 20:33:00,16.5,-5.8,30.16,WNW,291,3.0,10.0,36,0.00,CLR,CLR,0.16,WeatherDisplay:10.34,2013-02-02 01:33:00,
2013-02-01 20:38:00,16.3,-5.4,30.16,WSW,253,3.0,5.0,37,0.00,CLR,CLR,0.16,WeatherDisplay:10.34,2013-02-02 01:38:00,
2013-02-01 20:43:00,16.3,-5.4,30.16,WNW,303,0.0,5.0,37,0.00,CLR,CLR,0.16,WeatherDisplay:10.34,2013-02-02 01:43:00,
2013-02-01 20:48:00,16.2,-5.6,30.16,West,273,4.0,7.0,37,0.00,CLR,CLR,0.16,WeatherDisplay:10.34,2013-02-02 01:48:00,
2013-02-01 20:53:00,16.2,-5.6,30.16,NNW,330,4.0,7.0,37,0.00,CLR,CLR,0.16,WeatherDisplay:10.34,2013-02-02 01:53:00,
2013-02-01 20:58:00,16.0,-5.8,30.16,NW,304,6.0,12.0,37,0.00,CLR,CLR,0.16,WeatherDisplay:10.34,2013-02-02 01:58:00,
2013-02-01 21:03:00,16.0,-5.8,30.16,North,9,3.0,6.0,37,0.00,FEW,FEW,0.16,WeatherDisplay:10.34,2013-02-02 02:03:00,
2013-02-01 21:08:00,16.3,-5.4,30.16,NNE,25,5.0,8.0,37,0.00,FEW,FEW,0.16,WeatherDisplay:10.34,2013-02-02 02:08:00,
2013-02-01 21:13:00,16.2,-5.6,30.16,SW,215,4.0,6.0,37,0.00,FEW,FEW,0.16,WeatherDisplay:10.34,2013-02-02 02:13:00,
2013-02-01 21:18:00,16.3,-5.4,30.16,NW,314,4.0,10.0,37,0.00,FEW,FEW,0.16,WeatherDisplay:10.34,2013-02-02 02:18:00,
2013-02-01 21:23:00,16.0,-5.8,30.16,NNW,337,7.0,9.0,37,0.00,FEW,FEW,0.16,WeatherDisplay:10.34,2013-02-02 02:23:00,
2013-02-01 21:28:00,16.0,-5.8,30.16,NNE,33,5.0,8.0,37,0.00,FEW,FEW,0.16,WeatherDisplay:10.34,2013-02-02 02:28:00,
2013-02-01 21:33:00,15.8,-5.9,30.16,NNE,27,4.0,8.0,37,0.00,FEW,FEW,0.16,WeatherDisplay:10.34,2013-02-02 02:33:00,
2013-02-01 21:38:00,15.8,-5.9,30.16,NNW,336,6.0,9.0,37,0.00,FEW,FEW,0.16,WeatherDisplay:10.34,2013-02-02 02:38:00,
2013-02-01 21:43:00,15.6,-6.1,30.19,North,351,4.0,9.0,37,0.00,FEW,FEW,0.16,WeatherDisplay:10.34,2013-02-02 02:43:00,
2013-02-01 21:48:00,15.6,-6.1,30.19,WSW,248,4.0,6.0,37,0.00,FEW,FEW,0.16,WeatherDisplay:10.34,2013-02-02 02:48:00,
2013-02-01 21:53:00,15.6,-6.1,30.19,West,280,0.0,7.0,37,0.00,FEW,FEW,0.16,WeatherDisplay:10.34,2013-02-02 02:53:00,
2013-02-01 21:58:00,15.3,-6.4,30.19,SW,236,3.0,5.0,37,0.00,FEW,FEW,0.16,WeatherDisplay:10.34,2013-02-02 02:58:00,
2013-02-01 22:03:00,15.3,-6.4,30.19,North,9,0.0,3.0,37,0.00,CLR,CLR,0.16,WeatherDisplay:10.34,2013-02-02 03:03:00,
2013-02-01 22:08:00,15.3,-6.4,30.19,North,356,3.0,7.0,37,0.00,CLR,CLR,0.16,WeatherDisplay:10.34,2013-02-02 03:08:00,
2013-02-01 22:13:00,15.3,-6.4,30.19,SSW,198,4.0,7.0,37,0.00,CLR,CLR,0.16,WeatherDisplay:10.34,2013-02-02 03:13:00,
2013-02-01 22:18:00,14.9,-6.7,30.19,WNW,292,4.0,10.0,37,0.00,CLR,CLR,0.16,WeatherDisplay:10.34,2013-02-02 03:18:00,
2013-02-01 22:23:00,14.9,-6.7,30.19,NW,318,3.0,3.0,37,0.00,CLR,CLR,0.16,WeatherDisplay:10.34,2013-02-02 03:23:00,
2013-02-01 22:28:00,15.1,-6.6,30.19,NNW,329,0.0,5.0,37,0.00,CLR,CLR,0.16,WeatherDisplay:10.34,2013-02-02 03:28:00,
2013-02-01 22:33:00,15.1,-6.6,30.19,NW,306,0.0,6.0,37,0.00,CLR,CLR,0.16,WeatherDisplay:10.34,2013-02-02 03:33:00,
2013-02-01 22:38:00,14.9,-6.7,30.19,West,280,4.0,6.0,37,0.00,CLR,CLR,0.16,WeatherDisplay:10.34,2013-02-02 03:38:00,
2013-02-01 22:43:00,14.7,-6.9,30.19,West,268,3.0,6.0,37,0.00,CLR,CLR,0.16,WeatherDisplay:10.34,2013-02-02 03:43:00,
2013-02-01 22:48:00,14.5,-7.1,30.19,West,267,0.0,3.0,37,0.00,CLR,CLR,0.16,WeatherDisplay:10.34,2013-02-02 03:48:00,
2013-02-01 22:53:00,14.2,-7.4,30.19,WSW,242,3.0,3.0,37,0.00,CLR,CLR,0.16,WeatherDisplay:10.34,2013-02-02 03:53:00,
2013-02-01 22:58:00,14.4,-7.2,30.19,SW,220,3.0,6.0,37,0.00,CLR,CLR,0.16,WeatherDisplay:10.34,2013-02-02 03:58:00,
2013-02-01 23:03:00,14.2,-7.4,30.19,SW,230,3.0,6.0,37,0.00,SCT,SCT,0.16,WeatherDisplay:10.34,2013-02-02 04:03:00,
2013-02-01 23:08:00,14.0,-7.5,30.19,SW,234,0.0,0.0,37,0.00,SCT,SCT,0.16,WeatherDisplay:10.34,2013-02-02 04:08:00,
2013-02-01 23:13:00,14.4,-6.7,30.19,WNW,291,0.0,3.0,38,0.00,SCT,SCT,0.16,WeatherDisplay:10.34,2013-02-02 04:13:00,
2013-02-01 23:18:00,14.7,-6.3,30.19,North,351,0.0,0.0,38,0.00,SCT,SCT,0.16,WeatherDisplay:10.34,2013-02-02 04:18:00,
2013-02-01 23:23:00,14.7,-6.3,30.19,NNW,341,0.0,3.0,38,0.00,SCT,SCT,0.16,WeatherDisplay:10.34,2013-02-02 04:23:00,
2013-02-01 23:28:00,14.4,-7.2,30.19,WSW,246,0.0,3.0,37,0.00,SCT,SCT,0.16,WeatherDisplay:10.34,2013-02-02 04:28:00,
2013-02-01 23:33:00,14.2,-7.4,30.19,WNW,288,3.0,5.0,37,0.00,SCT,SCT,0.16,WeatherDisplay:10.34,2013-02-02 04:33:00,
2013-02-01 23:38:00,14.4,-6.7,30.19,NNE,24,0.0,3.0,38,0.00,SCT,SCT,0.16,WeatherDisplay:10.34,2013-02-02 04:38:00,
2013-02-01 23:43:00,14.2,-6.8,30.22,NE,34,0.0,3.0,38,0.00,SCT,SCT,0.16,WeatherDisplay:10.34,2013-02-02 04:43:00,
2013-02-01 23:48:00,13.8,-7.7,30.22,WSW,242,4.0,9.0,37,0.00,SCT,SCT,0.16,WeatherDisplay:10.34,2013-02-02 04:48:00,
2013-02-01 23:53:00,13.8,-7.7,30.22,NW,304,3.0,8.0,37,0.00,SCT,SCT,0.16,WeatherDisplay:10.34,2013-02-02 04:53:00,
2013-02-01 23:58:00,14.0,-7.0,30.22,WSW,246,6.0,10.0,38,0.00,SCT,SCT,0.16,WeatherDisplay:10.34,2013-02-02 04:58:00,